GW4488 Weather Reports


time (UTC)temp
C
wind
direction
speed
KPH
gust
KPH
rain 1hr
cm
rain 24hr
cm
rain mn
cm
humidity
%
barometer
mb
20260504050503 5 276 1.6 6.4 0.00 0.00 0.00 86 1040.0
20260504045959 5 249 0.0 4.8 0.00 0.00 0.00 86 1040.1
20260504045455 5 270 1.6 3.2 0.00 0.00 0.00 86 1040.4
20260504044951 5 270 1.6 3.2 0.00 0.00 0.00 85 1040.1
20260504044449 5 203 1.6 3.2 0.00 0.00 0.00 85 1040.2
20260504043946 5 265 3.2 3.2 0.00 0.00 0.00 84 1040.1
20260504043443 6 238 4.8 4.8 0.00 0.00 0.00 84 1040.3
20260504042940 6 257 0.0 4.8 0.00 0.00 0.00 83 1040.2
20260504042437 6 228 3.2 3.2 0.00 0.00 0.00 84 1040.0
20260504041933 6 285 1.6 3.2 0.00 0.00 0.00 81 1040.2
20260504041430 6 283 1.6 3.2 0.00 0.00 0.00 81 1040.1
20260504040925 7 236 0.0 3.2 0.00 0.00 0.00 80 1040.2
20260504040424 7 291 1.6 3.2 0.00 0.00 0.00 81 1040.2
20260504035919 7 264 0.0 4.8 0.00 0.00 0.00 80 1040.3
20260504035417 7 277 0.0 4.8 0.00 0.00 0.00 81 1040.2
20260504034908 7 263 1.6 3.2 0.00 0.00 0.00 82 1040.3
20260504034406 7 243 1.6 3.2 0.00 0.00 0.00 82 1040.3
20260504033903 7 254 3.2 3.2 0.00 0.00 0.00 81 1040.1
20260504033401 8 257 3.2 3.2 0.00 0.00 0.00 80 1040.2
20260504032857 8 277 1.6 3.2 0.00 0.00 0.00 77 1040.3
20260504032354 8 253 3.2 4.8 0.00 0.00 0.00 75 1040.2
20260504031850 8 263 1.6 3.2 0.00 0.00 0.00 79 1040.3
20260504031347 8 262 1.6 3.2 0.00 0.00 0.00 78 1040.4
20260504030844 8 270 3.2 4.8 0.00 0.00 0.00 78 1040.4
20260504030342 8 257 1.6 3.2 0.00 0.00 0.00 79 1040.4
20260504025837 8 250 3.2 3.2 0.00 0.00 0.00 78 1040.4
20260504025335 8 243 1.6 4.8 0.00 0.00 0.00 76 1040.5
20260504024831 8 270 3.2 3.2 0.00 0.00 0.00 75 1040.5
20260504024328 8 240 3.2 3.2 0.00 0.00 0.00 74 1040.5
20260504023824 9 254 3.2 3.2 0.00 0.00 0.00 73 1040.5
20260504023321 9 275 3.2 3.2 0.00 0.00 0.00 73 1040.4
20260504022817 9 252 3.2 4.8 0.00 0.00 0.00 73 1040.4
20260504022314 9 270 3.2 4.8 0.00 0.00 0.00 72 1040.4
20260504021810 9 265 3.2 4.8 0.00 0.00 0.00 71 1040.5
20260504021308 10 264 1.6 3.2 0.00 0.00 0.00 66 1040.4
20260504020805 10 257 1.6 3.2 0.00 0.00 0.00 65 1040.6
20260504020301 10 263 4.8 6.4 0.00 0.00 0.00 63 1040.5
20260504015757 11 286 1.6 3.2 0.00 0.00 0.00 64 1040.5
20260504015254 11 279 3.2 6.4 0.00 0.00 0.00 57 1040.5
20260504014750 11 260 6.4 6.4 0.00 0.00 0.00 60 1040.5
20260504014246 11 259 3.2 4.8 0.00 0.00 0.00 61 1040.4
20260504013744 11 239 4.8 4.8 0.00 0.00 0.00 54 1040.7
20260504013242 11 278 1.6 8.0 0.00 0.00 0.00 52 1040.7
20260504012738 11 236 4.8 9.7 0.00 0.00 0.00 50 1040.9
20260504012236 11 265 4.8 11.3 0.00 0.00 0.00 50 1040.9
20260504011732 11 248 3.2 8.0 0.00 0.00 0.00 54 1040.9
20260504011229 12 270 1.6 4.8 0.00 0.00 0.00 51 1040.7
20260504010725 12 254 9.7 14.5 0.00 0.00 0.00 49 1040.8
20260504010220 11 286 3.2 9.7 0.00 0.00 0.00 56 1040.8
20260504005717 11 231 3.2 8.0 0.00 0.00 0.00 53 1040.3
20260504005215 12 275 0.0 4.8 0.00 0.00 0.00 57 1040.3
20260504004712 12 246 8.0 9.7 0.00 0.00 0.00 49 1040.3
20260504004209 12 270 4.8 6.4 0.00 0.00 0.00 52 1040.2
20260504003706 12 270 1.6 9.7 0.00 0.00 0.00 51 1040.4
20260504003203 12 231 4.8 12.9 0.00 0.00 0.00 48 1040.4
20260504002659 11 255 0.0 6.4 0.00 0.00 0.00 58 1040.3
20260504002156 12 285 3.2 4.8 0.00 0.00 0.00 51 1040.2
20260504001654 12 343 3.2 9.7 0.00 0.00 0.00 50 1040.5
20260504001150 12 342 1.6 14.5 0.00 0.00 0.00 50 1040.0
20260504000647 11 297 4.8 8.0 0.00 0.00 0.00 58 1040.3
20260504000145 12 246 4.8 6.4 0.00 0.00 0.00 50 1040.3
20260503235643 12 251 4.8 4.8 0.00 0.00 0.00 51 1040.0
20260503235139 12 210 3.2 8.0 0.00 0.00 0.00 54 1040.3
20260503234637 12 254 8.0 8.0 0.00 0.00 0.00 50 1040.2
20260503234135 12 290 3.2 8.0 0.00 0.00 0.00 50 1040.1
20260503233632 12 227 12.9 12.9 0.00 0.00 0.00 49 1040.1
20260503233127 12 270 1.6 8.0 0.00 0.00 0.00 49 1039.9
20260503232624 12 309 4.8 14.5 0.00 0.00 0.00 51 1039.9
20260503232122 12 306 6.4 12.9 0.00 0.00 0.00 51 1040.0
20260503231620 12 267 6.4 11.3 0.00 0.00 0.00 50 1039.6
20260503231116 12 259 4.8 6.4 0.00 0.00 0.00 56 1039.2
20260503230613 12 287 4.8 4.8 0.00 0.00 0.00 55 1039.4
20260503230110 12 243 4.8 6.4 0.00 0.00 0.00 49 1039.4
20260503225608 12 279 3.2 6.4 0.00 0.00 0.00 50 1039.4
20260503225102 13 270 3.2 4.8 0.00 0.00 0.00 47 1039.2
20260503224600 13 267 4.8 9.7 0.00 0.00 0.00 47 1039.2
20260503224058 13 274 4.8 8.0 0.00 0.00 0.00 45 1039.6
20260503223556 13 300 4.8 4.8 0.00 0.00 0.00 46 1039.4
20260503223050 14 263 6.4 8.0 0.00 0.00 0.00 43 1039.4
20260503222549 14 286 3.2 4.8 0.00 0.00 0.00 46 1039.3
20260503222047 14 294 4.8 6.4 0.00 0.00 0.00 48 1039.6
20260503221545 14 265 3.2 6.4 0.00 0.00 0.00 48 1039.3
20260503221042 13 281 4.8 8.0 0.00 0.00 0.00 49 1039.8
20260503220538 13 259 4.8 9.7 0.00 0.00 0.00 45 1039.5
20260503220035 13 266 4.8 8.0 0.00 0.00 0.00 48 1039.5
20260503215532 13 275 3.2 4.8 0.00 0.00 0.00 46 1039.6
20260503215029 13 270 0.0 6.4 0.00 0.00 0.00 46 1039.8
20260503214527 13 270 3.2 8.0 0.00 0.00 0.00 45 1039.6
20260503214023 13 250 4.8 9.7 0.00 0.00 0.00 47 1039.8
20260503213522 13 274 4.8 6.4 0.00 0.00 0.00 51 1039.5
20260503213018 13 263 4.8 8.0 0.00 0.00 0.00 48 1039.6
20260503212516 14 300 6.4 8.0 0.00 0.00 0.00 46 1039.6
20260503212013 14 330 3.2 12.9 0.00 0.00 0.00 50 1039.9
20260503211510 15 274 4.8 4.8 0.00 0.00 0.00 44 1039.5
20260503211011 13 270 1.6 8.0 0.00 0.00 0.00 47 1039.5
20260503210508 13 285 4.8 4.8 0.00 0.00 0.00 47 1039.6
20260503210003 13 209 1.6 8.0 0.00 0.00 0.00 46 1039.8
20260503205500 13 270 3.2 9.7 0.00 0.00 0.00 51 1039.9
20260503204956 13 255 11.3 11.3 0.00 0.00 0.00 50 1040.0
20260503204453 13 264 1.6 4.8 0.00 0.00 0.00 47 1039.8
20260503203950 13 259 8.0 20.9 0.00 0.00 0.00 47 1040.1
20260503203448 13 296 4.8 14.5 0.00 0.00 0.00 48 1040.1
20260503202944 13 283 4.8 8.0 0.00 0.00 0.00 46 1040.1
20260503202443 13 276 3.2 6.4 0.00 0.00 0.00 48 1040.1
20260503201941 13 266 3.2 4.8 0.00 0.00 0.00 48 1040.1
20260503201437 13 252 8.0 11.3 0.00 0.00 0.00 47 1040.2
20260503200935 12 248 8.0 14.5 0.00 0.00 0.00 47 1040.3
20260503200431 12 353 3.2 24.1 0.00 0.00 0.00 48 1040.4
20260503195928 12 273 11.3 12.9 0.00 0.00 0.00 47 1040.4
20260503195426 13 279 0.0 4.8 0.00 0.00 0.00 53 1040.6
20260503194922 12 253 4.8 8.0 0.00 0.00 0.00 48 1040.7
20260503194419 12 232 8.0 9.7 0.00 0.00 0.00 50 1040.5
20260503193914 12 261 3.2 12.9 0.00 0.00 0.00 46 1040.5
20260503193410 12 258 4.8 8.0 0.00 0.00 0.00 48 1040.6
20260503192906 12 299 17.7 20.9 0.00 0.00 0.00 45 1040.6
20260503192401 13 295 6.4 9.7 0.00 0.00 0.00 50 1040.7
20260503191858 14 275 6.4 8.0 0.00 0.00 0.00 49 1040.6
20260503191355 13 312 3.2 8.0 0.00 0.00 0.00 47 1040.8
20260503190852 15 274 3.2 11.3 0.00 0.00 0.00 44 1040.6
20260503190349 13 275 3.2 11.3 0.00 0.00 0.00 51 1040.8
20260503185846 12 256 9.7 12.9 0.00 0.00 0.00 45 1040.8
20260503185343 12 286 6.4 8.0 0.00 0.00 0.00 46 1040.8
20260503184842 12 264 9.7 20.9 0.00 0.00 0.00 46 1040.8
20260503184338 13 218 0.0 24.1 0.00 0.00 0.00 43 1041.0
20260503183834 14 277 6.4 19.3 0.00 0.00 0.00 40 1040.7
20260503183331 15 246 8.0 9.7 0.00 0.00 0.00 46 1040.9
20260503182829 13 267 4.8 20.9 0.00 0.00 0.00 41 1040.9
20260503182328 13 311 9.7 33.8 0.00 0.00 0.00 41 1040.9
20260503181825 15 270 3.2 11.3 0.00 0.00 0.00 42 1040.8
20260503181322 15 109 8.0 8.0 0.00 0.00 0.00 37 1040.9
20260503180818 15 237 3.2 8.0 0.00 0.00 0.00 46 1041.0
20260503180316 14 165 4.8 14.5 0.00 0.00 0.00 39 1041.3
20260503175812 13 242 12.9 12.9 0.00 0.00 0.00 43 1041.4
20260503175311 13 286 0.0 20.9 0.00 0.00 0.00 42 1041.4
20260503174806 12 303 6.4 16.1 0.00 0.00 0.00 45 1041.1
20260503174305 12 286 3.2 20.9 0.00 0.00 0.00 45 1041.4
20260503173800 12 175 1.6 20.9 0.00 0.00 0.00 44 1041.4
20260503173256 12 270 4.8 4.8 0.00 0.00 0.00 45 1041.6
20260503172753 13 172 0.0 17.7 0.00 0.00 0.00 40 1041.4
20260503172250 13 279 0.0 17.7 0.00 0.00 0.00 43 1041.5
20260503171746 15 258 11.3 12.9 0.00 0.00 0.00 40 1041.6
20260503171244 13 277 0.0 19.3 0.00 0.00 0.00 45 1041.7
20260503170741 13 178 4.8 14.5 0.00 0.00 0.00 42 1041.6
20260503170237 12 277 0.0 11.3 0.00 0.00 0.00 42 1041.8
20260503160200 10 255 14.5 30.6 0.00 0.00 0.00 47 1042.8
20260503150629 10 279 9.7 11.3 0.00 0.00 0.00 51 1043.3
20260503150125 10 280 6.4 17.7 0.00 0.00 0.00 53 1043.2
20260503131014 8 306 4.8 6.4 0.00 0.00 0.00 50 1043.6
20260503130511 8 270 3.2 8.0 0.00 0.00 0.00 56 1043.6
20260503110401 0 294 1.6 3.2 0.00 0.00 0.00 99 1043.3
20260503090252 1 270 1.6 4.8 0.00 0.00 0.00 96 1042.9
20260503081225 1 275 3.2 3.2 0.00 0.00 0.00 96 1042.8
20260503080720 1 258 1.6 3.2 0.00 0.00 0.00 96 1042.7
20260503080218 1 249 0.0 3.2 0.00 0.00 0.00 96 1042.8
20260503072654 1 270 1.6 3.2 0.00 0.00 0.00 96 1042.7
20260503072151 1 270 1.6 3.2 0.00 0.00 0.00 96 1042.7
20260503071648 1 275 3.2 3.2 0.00 0.00 0.00 97 1042.8
20260503071145 1 270 3.2 3.2 0.00 0.00 0.00 97 1042.9
20260503070642 1 270 1.6 3.2 0.00 0.00 0.00 97 1042.9
20260503070140 1 270 3.2 3.2 0.00 0.00 0.00 97 1042.7